This is the latest recevied weather packets stored in our database for station/object N5CNB-2. If no packets are shown the sender has not sent any weather packets the latest 10 day(s).
| Time | Temp. | Humidity | Pressure | Rain* | Wind** | Luminosity | Snow |
|---|---|---|---|---|---|---|---|
| 1777257064 | 25° C | 84% | 1008.5 hPa | 0 mm | - | - | - |
| 1777256165 | 25° C | 84% | 1008.3 hPa | 0 mm | - | - | - |
| 1777255250 | 25° C | 84% | 1007.8 hPa | 0 mm | - | - | - |
| 1777254347 | 25.56° C | 84% | 1008.1 hPa | 0 mm | - | - | - |
| 1777253461 | 25.56° C | 83% | 1007.6 hPa | 0 mm | - | - | - |
| 1777252559 | 25.56° C | 83% | 1007.4 hPa | 0 mm | - | - | - |
| 1777251650 | 26.11° C | 82% | 1007.7 hPa | 0 mm | - | - | - |
| 1777250759 | 26.11° C | 81% | 1007.7 hPa | 0 mm | - | - | - |
| 1777249854 | 26.67° C | 80% | 1007.3 hPa | 0 mm | - | - | - |
| 1777248954 | 26.67° C | 79% | 1007.2 hPa | 0 mm | - | - | - |
| 1777248051 | 26.67° C | 79% | 1007.1 hPa | 0 mm | - | - | - |
| 1777247158 | 27.22° C | 78% | 1007.5 hPa | 0 mm | - | - | - |
| 1777246271 | 27.22° C | 78% | 1007.5 hPa | 0 mm | - | - | - |
| 1777245357 | 27.78° C | 77% | 1007.5 hPa | 0 mm | - | - | - |
| 1777244465 | 27.78° C | 78% | 1007.9 hPa | 0 mm | - | - | - |
| 1777243552 | 27.78° C | 77% | 1007.6 hPa | 0 mm | - | - | - |
| 1777242649 | 27.78° C | 76% | 1008 hPa | 0 mm | - | - | - |
| 1777241757 | 27.78° C | 76% | 1007.9 hPa | 0 mm | - | - | - |
| 1777240864 | 28.33° C | 75% | 1007.8 hPa | 0 mm | - | - | - |
| 1777239972 | 28.89° C | 73% | 1007.9 hPa | 0 mm | - | - | - |
| 1777239052 | 28.89° C | 71% | 1007.9 hPa | 0 mm | - | - | - |
| 1777238151 | 29.44° C | 71% | 1007.9 hPa | 0 mm | - | - | - |
| 1777237251 | 28.89° C | 72% | 1008.1 hPa | 0 mm | - | - | - |
| 1777236357 | 28.89° C | 72% | 1008.4 hPa | 0 mm | - | - | - |
| 1777235453 | 28.89° C | 71% | 1008.6 hPa | 0 mm | - | - | - |
* Rain latest hour (hover to see other rain measurements)
** Current wind speed in m/s (hover to see current wind gust speed)